GW4109 Weather Reports


Display with metric or nautical units.
time (UTC)temp
F
wind
direction
speed
MPH
gust
MPH
rain 1hr
in
rain 24hr
in
rain mn
in
humidity
%
barometer
mb
20260506104611 52 208 1.0 2.0 0.00 0.00 0.00 62 1018.1
20260506104108 54 236 1.0 2.0 0.00 0.00 0.00 61 1018.1
20260506103606 53 172 0.0 2.0 0.00 0.00 0.00 62 1018.0
20260506103102 53 265 1.0 2.0 0.00 0.00 0.00 62 1018.0
20260506102601 52 228 0.0 3.0 0.00 0.00 0.00 62 1017.9
20260506102058 52 250 1.0 2.0 0.00 0.00 0.00 61 1017.9
20260506101554 53 171 0.0 2.0 0.00 0.00 0.00 60 1018.0
20260506101051 53 338 0.0 3.0 0.00 0.00 0.00 60 1018.0
20260506100550 53 86 1.0 2.0 0.00 0.00 0.00 59 1017.8
20260506100047 54 174 0.0 2.0 0.00 0.00 0.00 58 1017.9
20260506095546 53 240 2.0 3.0 0.00 0.00 0.00 59 1018.0
20260506095042 53 296 0.0 3.0 0.00 0.00 0.00 60 1017.9
20260506094540 53 172 1.0 2.0 0.00 0.00 0.00 61 1018.0
20260506094038 53 277 2.0 3.0 0.00 0.00 0.00 61 1017.9
20260506093536 54 189 1.0 2.0 0.00 0.00 0.00 61 1018.0
20260506093033 54 176 1.0 1.0 0.00 0.00 0.00 60 1018.1
20260506092530 54 324 0.0 2.0 0.00 0.00 0.00 60 1018.0
20260506092027 54 320 0.0 2.0 0.00 0.00 0.00 59 1018.0
20260506091526 55 47 1.0 2.0 0.00 0.00 0.00 58 1018.0
20260506091022 55 72 2.0 2.0 0.00 0.00 0.00 57 1017.9
20260506090520 56 201 0.0 4.0 0.00 0.00 0.00 56 1017.8
20260506090016 55 112 1.0 2.0 0.00 0.00 0.00 56 1017.9
20260506085513 56 231 2.0 4.0 0.00 0.00 0.00 56 1017.9
20260506085010 56 76 0.0 2.0 0.00 0.00 0.00 58 1017.9
20260506084507 56 89 0.0 2.0 0.00 0.00 0.00 56 1018.2
20260506084003 56 206 2.0 2.0 0.00 0.00 0.00 57 1018.2
20260506083500 56 254 2.0 3.0 0.00 0.00 0.00 56 1018.1
20260506082957 57 216 0.0 4.0 0.00 0.00 0.00 55 1018.1
20260506082454 56 118 1.0 3.0 0.00 0.00 0.00 57 1018.3
20260506081950 56 1 0.0 2.0 0.00 0.00 0.00 57 1018.3
20260506081448 57 246 2.0 3.0 0.00 0.00 0.00 56 1018.3
20260506080945 57 353 2.0 6.0 0.00 0.00 0.00 56 1018.3
20260506080442 57 106 2.0 3.0 0.00 0.00 0.00 55 1018.3
20260506073426 59 178 2.0 2.0 0.00 0.00 0.00 53 1018.5
20260506072923 59 269 0.0 2.0 0.00 0.00 0.00 52 1018.4
20260506072420 59 116 0.0 2.0 0.00 0.00 0.00 52 1018.5
20260506071917 60 235 1.0 3.0 0.00 0.00 0.00 51 1018.5
20260506071416 60 294 2.0 2.0 0.00 0.00 0.00 51 1018.7
20260506070912 60 202 2.0 3.0 0.00 0.00 0.00 52 1018.4
20260506070409 59 162 0.0 2.0 0.00 0.00 0.00 52 1018.7
20260506062347 63 330 3.0 11.0 0.00 0.00 0.00 48 1018.0
20260506061843 63 269 4.0 6.0 0.00 0.00 0.00 48 1017.9
20260506061339 63 344 2.0 8.0 0.00 0.00 0.00 48 1018.1
20260506060838 63 257 5.0 6.0 0.00 0.00 0.00 47 1018.0
20260506060335 63 249 5.0 7.0 0.00 0.00 0.00 47 1018.0
20260506051307 62 286 3.0 10.0 0.00 0.00 0.00 47 1018.1
20260506050805 64 247 7.0 13.0 0.00 0.00 0.00 45 1017.7
20260506050302 63 240 7.0 7.0 0.00 0.00 0.00 46 1017.9
20260506044752 63 112 0.0 3.0 0.00 0.00 0.00 45 1017.6
20260506044250 64 133 1.0 3.0 0.00 0.00 0.00 45 1017.7
20260506043747 63 242 2.0 6.0 0.00 0.00 0.00 45 1017.4
20260506043244 64 128 0.0 4.0 0.00 0.00 0.00 45 1017.2
20260506042743 64 260 2.0 6.0 0.00 0.00 0.00 44 1017.4
20260506042242 65 252 3.0 7.0 0.00 0.00 0.00 43 1017.3
20260506041740 64 288 2.0 9.0 0.00 0.00 0.00 44 1017.2
20260506041236 64 253 3.0 4.0 0.00 0.00 0.00 44 1017.2
20260506040734 64 266 7.0 9.0 0.00 0.00 0.00 44 1017.0
20260506040231 65 268 4.0 7.0 0.00 0.00 0.00 43 1016.9
20260506035727 64 235 7.0 11.0 0.00 0.00 0.00 44 1016.9
20260506035224 65 248 2.0 8.0 0.00 0.00 0.00 43 1016.7
20260506034721 65 245 6.0 8.0 0.00 0.00 0.00 43 1016.7
20260506034218 65 231 3.0 8.0 0.00 0.00 0.00 43 1016.7
20260506033716 65 273 5.0 10.0 0.00 0.00 0.00 43 1016.3
20260506033212 65 256 5.0 11.0 0.00 0.00 0.00 43 1016.3
20260506032709 65 235 4.0 8.0 0.00 0.00 0.00 43 1016.1
20260506032206 65 232 5.0 14.0 0.00 0.00 0.00 43 1016.5
20260506031703 65 279 6.0 16.0 0.00 0.00 0.00 43 1016.2
20260506031200 64 244 3.0 9.0 0.00 0.00 0.00 44 1016.2
20260506030659 65 243 11.0 16.0 0.00 0.00 0.00 43 1016.0
20260506030155 64 248 11.0 16.0 0.00 0.00 0.00 44 1015.8
20260506025652 65 236 4.0 14.0 0.00 0.00 0.00 44 1015.8
20260506025148 65 275 4.0 19.0 0.00 0.00 0.00 43 1015.6
20260506024645 65 229 9.0 12.0 0.00 0.00 0.00 44 1015.9
20260506024141 65 235 17.0 19.0 0.00 0.00 0.00 43 1015.5
20260506023638 65 275 5.0 15.0 0.00 0.00 0.00 43 1015.7
20260506023135 65 292 7.0 16.0 0.00 0.00 0.00 42 1015.4
20260506022632 65 246 11.0 18.0 0.00 0.00 0.00 42 1015.4
20260506022130 66 261 9.0 13.0 0.00 0.00 0.00 42 1015.4
20260506021628 66 257 8.0 17.0 0.00 0.00 0.00 40 1015.2
20260506021125 66 317 5.0 14.0 0.00 0.00 0.00 41 1015.1
20260506020622 66 313 6.0 18.0 0.00 0.00 0.00 40 1015.1
20260506020119 66 319 11.0 19.0 0.00 0.00 0.00 40 1014.9
20260506015617 67 315 9.0 21.0 0.00 0.00 0.00 39 1014.9
20260506015113 67 307 4.0 17.0 0.00 0.00 0.00 39 1014.8
20260506014611 67 295 9.0 24.0 0.00 0.00 0.00 38 1014.6
20260506014106 67 295 8.0 19.0 0.00 0.00 0.00 38 1014.7
20260506013605 68 305 9.0 28.0 0.00 0.00 0.00 37 1014.5
20260506013101 67 263 9.0 13.0 0.00 0.00 0.00 37 1014.7
20260506012557 68 297 10.0 16.0 0.00 0.00 0.00 36 1014.6
20260506012054 68 315 11.0 16.0 0.00 0.00 0.00 36 1014.7
20260506011552 70 245 13.0 19.0 0.00 0.00 0.00 34 1014.5
20260506011048 70 286 6.0 12.0 0.00 0.00 0.00 33 1014.7
20260506010547 70 335 8.0 19.0 0.00 0.00 0.00 33 1014.5
20260506010044 70 347 4.0 23.0 0.00 0.00 0.00 33 1014.7
20260506005541 71 246 8.0 9.0 0.00 0.00 0.00 32 1014.7
20260506005037 72 274 5.0 9.0 0.00 0.00 0.00 32 1014.6
20260506004534 72 329 5.0 6.0 0.00 0.00 0.00 32 1014.6
20260506004031 72 314 0.0 3.0 0.00 0.00 0.00 32 1014.5
20260506003527 70 233 5.0 13.0 0.00 0.00 0.00 34 1014.7
20260506003023 70 225 6.0 20.0 0.00 0.00 0.00 34 1014.8
20260506002520 70 234 26.0 31.0 0.00 0.00 0.00 34 1014.8
20260506002015 70 231 19.0 23.0 0.00 0.00 0.00 33 1014.8
20260506001512 69 235 6.0 27.0 0.00 0.00 0.00 34 1015.1
20260506001009 70 242 7.0 19.0 0.00 0.00 0.00 35 1014.9
20260506000507 71 207 7.0 24.0 0.00 0.00 0.00 34 1014.9
20260506000003 71 213 14.0 26.0 0.00 0.00 0.00 34 1015.1
20260505235502 71 227 7.0 23.0 0.00 0.00 0.00 34 1014.9
20260505234958 71 225 17.0 19.0 0.00 0.00 0.00 34 1015.2
20260505234455 71 215 10.0 18.0 0.00 0.00 0.00 34 1015.1
20260505233952 71 254 8.0 23.0 0.00 0.00 0.00 33 1015.4
20260505233450 71 241 11.0 13.0 0.00 0.00 0.00 32 1015.4
20260505232947 73 222 14.0 18.0 0.00 0.00 0.00 32 1015.3
20260505232445 72 232 14.0 18.0 0.00 0.00 0.00 32 1015.3
20260505231942 71 234 16.0 17.0 0.00 0.00 0.00 33 1015.5
20260505231439 72 239 13.0 16.0 0.00 0.00 0.00 31 1015.5
20260505230937 73 240 2.0 22.0 0.00 0.00 0.00 31 1015.3
20260505230435 72 232 9.0 20.0 0.00 0.00 0.00 32 1015.5
20260505225931 72 242 12.0 20.0 0.00 0.00 0.00 31 1015.5
20260505225428 73 242 11.0 20.0 0.00 0.00 0.00 30 1015.6
20260505224923 72 218 8.0 20.0 0.00 0.00 0.00 30 1015.6
20260505224421 71 253 14.0 22.0 0.00 0.00 0.00 31 1015.8
20260505223918 73 235 10.0 10.0 0.00 0.00 0.00 30 1016.0
20260505223415 73 227 14.0 16.0 0.00 0.00 0.00 29 1015.9
20260505222911 74 232 19.0 21.0 0.00 0.00 0.00 29 1015.8
20260505222407 71 249 8.0 15.0 0.00 0.00 0.00 32 1015.9
20260505221904 73 246 4.0 21.0 0.00 0.00 0.00 31 1016.1
20260505221401 73 183 1.0 5.0 0.00 0.00 0.00 31 1016.1
20260505220858 74 327 7.0 16.0 0.00 0.00 0.00 30 1016.1
20260505220355 71 345 3.0 13.0 0.00 0.00 0.00 32 1016.5
20260505215852 72 232 9.0 15.0 0.00 0.00 0.00 31 1016.3
20260505215351 71 309 8.0 17.0 0.00 0.00 0.00 31 1016.2
20260505214848 74 249 3.0 14.0 0.00 0.00 0.00 30 1016.6
20260505214346 73 172 1.0 8.0 0.00 0.00 0.00 31 1016.5
20260505213843 71 247 6.0 14.0 0.00 0.00 0.00 33 1016.6
20260505213341 71 253 6.0 23.0 0.00 0.00 0.00 31 1016.6
20260505212836 71 255 4.0 11.0 0.00 0.00 0.00 31 1016.8
20260505212333 71 252 5.0 11.0 0.00 0.00 0.00 32 1016.8
20260505211829 71 329 12.0 17.0 0.00 0.00 0.00 32 1016.8
20260505211327 72 264 5.0 15.0 0.00 0.00 0.00 32 1016.7
20260505210824 73 354 6.0 12.0 0.00 0.00 0.00 32 1016.7
20260505210320 70 330 6.0 12.0 0.00 0.00 0.00 35 1016.8
20260505205817 71 257 8.0 14.0 0.00 0.00 0.00 33 1016.9
20260505205316 71 333 4.0 6.0 0.00 0.00 0.00 33 1016.8
20260505204812 70 289 3.0 11.0 0.00 0.00 0.00 34 1017.0
20260505204310 72 134 0.0 15.0 0.00 0.00 0.00 31 1016.8
20260505203807 70 320 12.0 15.0 0.00 0.00 0.00 34 1016.8
20260505203304 71 310 4.0 11.0 0.00 0.00 0.00 34 1016.8
20260505202800 71 332 5.0 13.0 0.00 0.00 0.00 34 1016.7
20260505202256 70 330 5.0 10.0 0.00 0.00 0.00 35 1016.9
20260505201753 72 24 1.0 8.0 0.00 0.00 0.00 35 1016.8
20260505201250 70 80 4.0 7.0 0.00 0.00 0.00 35 1016.9
20260505200749 68 249 6.0 7.0 0.00 0.00 0.00 38 1017.0
20260505200245 69 312 5.0 13.0 0.00 0.00 0.00 37 1017.0
20260505195740 71 342 3.0 13.0 0.00 0.00 0.00 36 1017.1
20260505195239 68 253 7.0 16.0 0.00 0.00 0.00 37 1017.1
20260505194735 70 312 12.0 21.0 0.00 0.00 0.00 37 1017.2
20260505194232 68 309 10.0 17.0 0.00 0.00 0.00 40 1017.3
20260505193728 68 302 6.0 10.0 0.00 0.00 0.00 40 1017.4
20260505193225 68 312 13.0 15.0 0.00 0.00 0.00 40 1017.4
20260505192724 69 248 5.0 15.0 0.00 0.00 0.00 37 1017.4
20260505192221 69 310 6.0 13.0 0.00 0.00 0.00 39 1017.6
20260505191719 69 35 2.0 9.0 0.00 0.00 0.00 40 1017.2
20260505191218 67 68 3.0 8.0 0.00 0.00 0.00 41 1017.7
20260505190713 68 257 8.0 9.0 0.00 0.00 0.00 41 1017.7
20260505190213 69 349 2.0 10.0 0.00 0.00 0.00 40 1017.6
20260505185710 66 56 1.0 13.0 0.00 0.00 0.00 42 1017.6
20260505185206 67 236 4.0 16.0 0.00 0.00 0.00 42 1017.4
20260505184702 68 146 2.0 6.0 0.00 0.00 0.00 41 1017.5
20260505184200 68 303 3.0 5.0 0.00 0.00 0.00 41 1017.6
20260505183656 68 359 2.0 9.0 0.00 0.00 0.00 41 1017.7
20260505183154 68 311 5.0 10.0 0.00 0.00 0.00 41 1017.5
20260505182650 67 317 9.0 14.0 0.00 0.00 0.00 43 1017.6
20260505182148 67 357 4.0 18.0 0.00 0.00 0.00 43 1017.4
20260505181643 66 321 8.0 17.0 0.00 0.00 0.00 43 1017.5
20260505181141 67 323 11.0 12.0 0.00 0.00 0.00 42 1017.4
20260505180637 67 322 13.0 14.0 0.00 0.00 0.00 42 1017.2
20260505180135 68 55 3.0 9.0 0.00 0.00 0.00 42 1017.2
20260505175631 67 23 3.0 13.0 0.00 0.00 0.00 42 1017.0
20260505175127 68 357 3.0 8.0 0.00 0.00 0.00 42 1017.1
20260505174624 68 339 2.0 5.0 0.00 0.00 0.00 42 1017.1
20260505174120 66 250 3.0 18.0 0.00 0.00 0.00 44 1017.0
20260505173617 68 356 5.0 7.0 0.00 0.00 0.00 43 1017.0
20260505173114 68 44 3.0 5.0 0.00 0.00 0.00 43 1016.8
20260505172611 68 345 6.0 11.0 0.00 0.00 0.00 43 1016.7
20260505172108 68 53 2.0 6.0 0.00 0.00 0.00 43 1016.8
20260505171602 68 345 5.0 7.0 0.00 0.00 0.00 44 1016.6
20260505171100 68 19 2.0 11.0 0.00 0.00 0.00 43 1016.6
20260505170556 67 337 4.0 7.0 0.00 0.00 0.00 45 1016.5
20260505170053 67 0 4.0 8.0 0.00 0.00 0.00 45 1016.6
20260505165548 67 343 3.0 9.0 0.00 0.00 0.00 45 1016.5
20260505165044 68 329 7.0 9.0 0.00 0.00 0.00 45 1016.6
20260505164540 69 4 3.0 8.0 0.00 0.00 0.00 44 1016.6
20260505164038 68 17 4.0 8.0 0.00 0.00 0.00 44 1016.3
20260505163537 69 24 4.0 7.0 0.00 0.00 0.00 43 1016.3
20260505163033 69 50 4.0 6.0 0.00 0.00 0.00 43 1016.2
20260505162526 69 125 0.0 3.0 0.00 0.00 0.00 41 1016.5
20260505162023 68 66 2.0 7.0 0.00 0.00 0.00 44 1016.2
20260505161520 68 348 3.0 8.0 0.00 0.00 0.00 45 1016.1
20260505161017 69 300 0.0 4.0 0.00 0.00 0.00 43 1016.3
20260505160515 67 114 0.0 6.0 0.00 0.00 0.00 44 1016.3
20260505152951 64 287 2.0 7.0 0.00 0.00 0.00 48 1016.0
20260505152449 65 262 4.0 8.0 0.00 0.00 0.00 47 1016.1
20260505151943 65 268 7.0 9.0 0.00 0.00 0.00 47 1015.9
20260505151439 66 216 3.0 4.0 0.00 0.00 0.00 45 1015.9
20260505150937 65 212 0.0 2.0 0.00 0.00 0.00 47 1015.7
20260505150433 66 266 3.0 7.0 0.00 0.00 0.00 46 1015.9
20260505140403 65 44 0.0 2.0 0.00 0.00 0.00 49 1015.6
20260505124817 57 156 1.0 2.0 0.00 0.00 0.00 62 1015.0
20260505124314 56 177 1.0 3.0 0.00 0.00 0.00 62 1015.0
20260505123810 57 153 2.0 2.0 0.00 0.00 0.00 62 1014.8
20260505123307 56 165 3.0 3.0 0.00 0.00 0.00 64 1014.9
20260505122802 55 134 2.0 4.0 0.00 0.00 0.00 65 1014.8
20260505122300 55 322 0.0 1.0 0.00 0.00 0.00 64 1014.8
20260505121756 55 100 0.0 1.0 0.00 0.00 0.00 64 1014.7
20260505121253 55 118 0.0 2.0 0.00 0.00 0.00 63 1014.8
20260505120750 56 254 1.0 4.0 0.00 0.00 0.00 62 1014.8
20260505120246 57 88 3.0 5.0 0.00 0.00 0.00 61 1014.8
20260505115744 57 92 2.0 5.0 0.00 0.00 0.00 61 1014.8
20260505115242 57 87 3.0 5.0 0.00 0.00 0.00 61 1014.8
20260505114740 57 98 3.0 4.0 0.00 0.00 0.00 61 1015.0
20260505114236 57 143 0.0 3.0 0.00 0.00 0.00 62 1015.0
20260505113733 57 53 2.0 3.0 0.00 0.00 0.00 61 1015.2
20260505113230 57 79 1.0 3.0 0.00 0.00 0.00 61 1015.1
20260505112726 59 148 0.0 2.0 0.00 0.00 0.00 60 1015.5
20260505112224 59 89 0.0 2.0 0.00 0.00 0.00 59 1015.1
20260505111723 59 115 1.0 2.0 0.00 0.00 0.00 59 1015.1
20260505111219 59 191 2.0 3.0 0.00 0.00 0.00 58 1015.3
20260505110715 59 237 2.0 3.0 0.00 0.00 0.00 58 1015.2
20260505110213 59 230 2.0 5.0 0.00 0.00 0.00 57 1015.4